Location: Mahannah Oil Field
(37.4664°N, 96.6003°W)
Time: 14:46:58
(UTC+00:00)

Courier 1B Rocket - All Passes

Search period start: 23 January 2021 00:00
Search period end: 02 February 2021 00:00
Orbit: 920 x 1202 km, 28.2° (Epoch: 23 January)

Date Brightness Start Highest point End Pass type
(mag) Time Alt. Az. Time Alt. Az. Time Alt. Az.
23 Jan - 12:00:12 10° SSW 12:04:29 18° SSE 12:08:56 10° ESE visible
23 Jan - 13:51:01 10° SW 13:57:10 35° SSE 14:03:42 10° ESE daylight
23 Jan - 15:43:35 10° WSW 15:50:14 41° S 15:57:15 10° ESE daylight
23 Jan - 17:37:04 10° WSW 17:43:20 29° SSW 17:49:50 10° SE daylight
23 Jan - 19:32:57 10° SW 19:36:10 13° SSW 19:39:25 10° S daylight
24 Jan - 11:01:20 10° S 11:03:44 12° SSE 11:06:11 10° SE visible
24 Jan - 12:50:35 10° SW 12:56:14 29° SSE 13:02:14 10° ESE visible
24 Jan - 14:42:44 10° WSW 14:49:10 40° S 14:56:03 10° ESE daylight
24 Jan - 16:35:52 10° WSW 16:42:17 34° SSW 16:49:02 10° SE daylight
24 Jan - 18:30:25 10° WSW 18:35:13 18° SSW 18:40:08 10° SSE daylight
25 Jan - 11:50:25 10° SSW 11:55:24 23° SSE 12:00:38 10° ESE visible
25 Jan - 13:42:01 10° WSW 13:48:11 38° S 13:54:47 10° ESE daylight
25 Jan - 15:34:49 10° WSW 15:41:14 37° S 15:48:03 10° ESE daylight
25 Jan - 17:28:40 10° WSW 17:34:14 23° SSW 17:40:01 10° SSE daylight
26 Jan - 10:50:40 10° SSW 10:54:39 17° SSE 10:58:45 10° ESE visible
26 Jan - 12:41:26 10° SW 12:47:15 34° SSE 12:53:27 10° ESE visible
26 Jan - 14:33:56 10° WSW 14:40:13 39° S 14:46:58 10° ESE daylight
26 Jan - 16:27:19 10° WSW 16:33:15 28° SSW 16:39:28 10° SE daylight
26 Jan - 18:23:18 10° SW 18:26:04 12° SSW 18:28:52 10° S daylight
27 Jan - 09:51:53 10° S 09:53:56 12° SSE 09:56:00 10° SE visible
27 Jan - 11:41:01 10° SW 11:46:24 28° SSE 11:52:03 10° ESE visible
27 Jan - 13:33:08 10° WSW 13:39:14 39° S 13:45:47 10° ESE daylight
27 Jan - 15:26:11 10° WSW 15:32:15 32° SSW 15:38:41 10° SE daylight
27 Jan - 17:20:44 10° WSW 17:25:08 17° SSW 17:29:41 10° SSE daylight
28 Jan - 10:40:51 10° SSW 10:45:36 22° SSE 10:50:32 10° ESE visible
28 Jan - 12:32:27 10° WSW 12:38:19 37° S 12:44:34 10° ESE visible
28 Jan - 14:25:12 10° WSW 14:31:17 36° S 14:37:45 10° SE daylight
28 Jan - 16:19:01 10° WSW 16:24:12 22° SSW 16:29:37 10° SSE daylight
29 Jan - 09:41:05 10° SSW 09:44:52 17° SSE 09:48:44 10° ESE visible
29 Jan - 11:31:53 10° SW 11:37:27 32° S 11:43:18 10° ESE visible
29 Jan - 13:24:21 10° WSW 13:30:19 38° S 13:36:42 10° ESE daylight
29 Jan - 15:17:42 10° WSW 15:23:15 26° SSW 15:29:08 10° SE daylight
29 Jan - 17:14:04 10° SW 17:16:02 11° SSW 17:18:01 10° SSW daylight
30 Jan - 08:42:16 10° S 08:44:10 11° SSE 08:46:05 10° SE night (unlit)
30 Jan - 10:31:27 10° SW 10:36:38 27° SSE 10:42:00 10° ESE visible
30 Jan - 12:23:35 10° WSW 12:29:24 37° S 12:35:36 10° ESE visible
30 Jan - 14:16:37 10° WSW 14:22:20 31° SSW 14:28:23 10° SE daylight
30 Jan - 16:11:13 10° WSW 16:15:08 16° SSW 16:19:10 10° S daylight
31 Jan - 09:31:14 10° SSW 09:35:52 22° SSE 09:40:35 10° ESE visible
31 Jan - 11:22:53 10° WSW 11:28:33 35° S 11:34:28 10° ESE visible
31 Jan - 13:15:40 10° WSW 13:21:25 34° S 13:27:31 10° SE daylight
31 Jan - 15:09:30 10° WSW 15:14:14 20° SSW 15:19:12 10° SSE daylight
01 Feb - 08:31:23 10° SSW 08:35:09 17° SSE 08:38:56 10° ESE night (unlit)
01 Feb - 10:22:17 10° SW 10:27:43 32° S 10:33:19 10° ESE visible
01 Feb - 12:14:48 10° WSW 12:20:32 36° S 12:26:34 10° ESE visible
01 Feb - 14:08:11 10° WSW 14:13:22 25° SSW 14:18:49 10° SE daylight
